Regional Weather Roundup
Issued by NWS Goodland, KS

Home | Current Version | Previous Version | Text Only | Print | Product List | Glossary Off
Versions: 1 2 3 4 5 6 7 8 9 10 11 12 13 14 15 16 17 18 19 20 21 22 23 24 25 26 27 28 29 30 31 32 33 34 35 36 37 38 39 40 41 42 43 44 45 46 47 48 49 50

000
ASUS43 KGLD 161708
RWRGLD

GOODLAND FORECAST AREA HOURLY WEATHER ROUNDUP
NATIONAL WEATHER SERVICE GOODLAND KS
1100 AM MDT TUE SEP 16 2014

...OFFICIAL OBSERVATIONS...

CITY           SKY/WX    TMP DP  RH WIND       PRES   REMARKS
GOODLAND KS    SUNNY     69  54  58 SW15      30.13F
HILL CITY KS   CLOUDY    63  53  70 S9        30.16F
IMPERIAL NEB   SUNNY     69  54  58 S17G25    30.07F
MCCOOK NEB     CLOUDY    65  54  67 S17       30.11F
AKRON CO       SUNNY     75  50  41 W15       30.13F
BURLINGTON CO  SUNNY     70  53  54 S12       30.14F
LIMON CO       SUNNY    N/A N/A N/A MISG      30.19
$$

...UNOFFICIAL OBSERVATIONS...

CITY           SKY/WX    TMP DP  RH WIND       PRES   REMARKS
COLBY KS       CLOUDY    66  59  77 S16G22    30.13F
GOVE KS          N/A     62  32  32 MISG        N/A
NORTON KS      CLOUDY    63  52  67 S14       30.13F
SHARON SPRINGS   N/A     69  58  68 SW10G18     N/A
TRIBUNE KS     SUNNY     72  61  68 S16       30.16F
WAKEENEY KS      N/A     60  52  74 MISG        N/A
TRENTON NEB      N/A     66  32  28 S16         N/A
YUMA CO          N/A     73  55  52 SW6         N/A
$$


USA.gov is the U.S. government's official web portal to all federal, state and local government web resources and services.